Terminal Aerodrome Forecast
Issued by NWS Nashville, TN

Home | Current Version | Previous Version | Text Only | Print | Product List | Glossary On
Versions: 1 2 3 4 5 6 7 8 9 10 11 12 13 14 15 16 17 18 19 20 21 22 23 24 25 26
000
FTUS44 KOHX 032100 AAA
TAFBNA
TAF AMD
KBNA 032126Z 0321/0418 20011G17KT P6SM OVC012
     FM032200 21012G19KT 5SM -SHRA OVC009
     FM040900 26009KT 4SM -RA OVC005
     FM041100 33006KT 4SM -RA OVC004=

USA.gov is the U.S. government's official web portal to all federal, state and local government web resources and services.